sat.trackr.live / text

‹ back to catalog

SKIF-D

NORAD 54153 · 2022-139D

PAYLOAD ACTIVE UNKNOWN

§ Identity

Operator
Country
CIS
Launch date
2022-10-22
Launch site
VOSTO
Launch vehicle
Mass (kg)
RCS (m²)

External: N2YO · Heavens-Above · Gunter

§ Orbital elements

Epoch: 2026-09-17T23:47:21.096960Z

Period
287.75 min
Inclination
89.9445°
Eccentricity
0.0007799
Mean motion
5.00428432 rev/d
Perigee alt
8,048.6 km
Apogee alt
8,071.1 km
Semi-major
14,438.0 km
B*
0.0000e+0
RAAN
96.6341°
Arg perigee
163.2164°
Mean anomaly
196.8794°
Rev number
6,875

§ Raw data

SKIF-D1 54153U 22139D   26260.99121640  .00000033  00000+0  00000+0 0  99972 54153  89.9445  96.6341 0007799 163.2164 196.8794  5.00428432 68751

JSON: /api/v1/satellites/54153 · /tle

For live sub-satellite position, see the globe view (requires WebGL).

§ Visibility from observer

Set your observer location to see the next 7 days of passes ≥ 10°. The values pass through the URL so the page stays shareable.

No JS? Fill the form by hand. The geolocation button needs JavaScript.

§ Radio — SatNOGS DB

ModeDescriptionDownlinkUplink
FM Mode U 435.466 MHz
FM Mode U - TLM 435.566 MHz

2 transmitters · refreshed weekly from db.satnogs.org